THORAD DELTA 1 DEB, 8438

Orbit data source: Space-Track

THORAD DELTA 1 DEB, 8438 is space debris in SSO originally from a launch on Fri, 15 Nov 1974 UTC launched from the Air Force Western Test Range (AFWTR). Debris objects in space refer to the collection of defunct objects orbiting the Earth. Examples of debris include non-operational satellites, rocket bodies, and fragments generated from explosions, collisions, or faulty payload assembly.

Loading next visibility...
Identifier
8438, 1974-089CP
Orbit
SSO
Country
Flag of USUS
Related business
Manufacturer
Unknown
Mission
Spacecraft
Bus & Motor
Unknown
Mass
Unknown
Launch date (UTC)
1974-11-15 (52 years ago)
Launch vehicle
Unknown
Launch site
Air Force Western Test Range (AFWTR)
Object type
Payload
Rocket body
Debris
Shape & HBR
Unknown shape, 0.1 m
Radar Cross Section
Medium (>0.1 m² and <1 m²)

Expand to show TLE details & history
Last TLE update: 4 days ago

TLE from 4 days ago
0 THORAD DELTA 1 DEB
1 08438U 74089CP  26160.34068606  .00002612  00000-0  16329-2 0  9993
2 08438 101.6708 100.2888 0120425 215.0248 144.2945 14.02488412526557
Epoch: 2026-06-09T08:10Z
TLE epoch observation values (Epoch: 2026-06-09T08:10:35.275Z)
Latitude
-0.00001°
Longitude
79.92724°
Altitude
959.366 km
Speed
7.336 km/s
True Right ascension
06h 41m 09s
True Declination
0° 00' 00"
Sunlit
Object was in daylight at epoch
Visualization orbit readout
Latitude
Unknown
Longitude
Unknown
Altitude
Unknown
Speed
Unknown
Apparent Right ascension
Unknown
Apparent Declination
Unknown
Sunlit
N/A
Visualization observer readout
Local Sidereal Time
07:46:17
Azimuth
Unknown
Elevation
Unknown
Doppler factor
Unknown
Orbital elements
Apogee altitude
969.973 km
Perigee altitude
795.099 km
Semi-major axis
7,260.673 km
Eccentricity
0.01204
Inclination
101.6708°
RAAN
100.2888°
Arg. of periapsis
215.0248°
True anomaly
145.09012°
Mean anomaly
144.2945°
Eccentric anomaly
144.69328°
Mean motion
3.50815 °/min
Orbital period
102.62 mins
BSTAR
0.0016329
Loading maneuver chart data...
Computing Atmospheric mass density...

Documentation

Showing up to 5 results
|